Racine, WI

7:17 AM CDT on October 21, 2017 (GMT -0500)
Batten

Weather History for KRAC - June, 2013

Change the Weather History Date:

Wednesday, June 26, 2013

  Actual Average Record
Temperature  
Mean Temperature 70 °F -  
Max Temperature 77 °F 77 °F 100 °F (1988)
Min Temperature 64 °F 59 °F 47 °F (1982)
Cooling Degree Days 6    
Growing Degree Days 20 (Base 50)    
Moisture  
Dew Point 64 °F    
Average Humidity 86    
Maximum Humidity 94    
Minimum Humidity 66    
Precipitation  
Precipitation 0.19 in - - ()
Sea Level Pressure  
Sea Level Pressure 29.80 in    
Wind  
Wind Speed 5 mph (SSE)    
Max Wind Speed 13 mph    
Max Gust Speed 18 mph    
Visibility 8 miles    
Events Rain , Thunderstorm    
Averages and records for this station are not official NWS values.
T = Trace of Precipitation, MM = Missing Value Source: NWS Daily Summary

Daily Weather History Graph

Daily Weather History Graph

Search for Another Location

Airport or City:

Trip Planner

Search our weather history database for the weather conditions in past years. The results will help you decide how hot, cold, wet, or windy it might be!

Date:

Astronomy

Jun. 26, 2013 Rise Set
Actual Time 5:14 AM CDT 8:33 PM CDT
Civil Twilight 4:39 AM CDT 9:08 PM CDT
Nautical Twilight 3:53 AM CDT 9:54 PM CDT
Astronomical Twilight 2:57 AM CDT 10:50 PM CDT
Moon 10:50 PM CDT (6/26) 9:11 AM CDT (6/26)
Length of Visible Light 16h 29m
Length of Day
15h 19m
Waning Gibbous, 85% of the Moon is Illuminated
Jun 26
Waning Gibbous
Jun 29
Last Quarter
Jul 8
New
Jul 15
First Quarter
Jul 22
Full

Hourly Weather History & Observations

Time (CDT) Temp. Dew Point Humidity Pressure Visibility Wind Dir Wind Speed Gust Speed Precip Events Conditions
12:23 AM 69.8 °F 66.2 °F 88% 29.84 in 6.0 mi Calm Calm - N/A   Mostly Cloudy
12:53 AM 71.1 °F 66.0 °F 84% 29.83 in 8.0 mi SSE 4.6 mph - N/A   Overcast
1:39 AM 69.8 °F 66.2 °F 88% 29.82 in 6.0 mi South 5.8 mph - N/A   Mostly Cloudy
1:53 AM 69.1 °F 66.0 °F 90% 29.81 in 5.0 mi South 5.8 mph - N/A   Partly Cloudy
2:13 AM 69.8 °F 66.2 °F 88% 29.83 in 4.0 mi SE 5.8 mph - N/A   Mostly Cloudy
2:53 AM 64.9 °F 63.0 °F 93% 29.81 in 3.0 mi East 5.8 mph - N/A   Overcast
3:03 AM 64.4 °F 62.6 °F 94% 29.82 in 3.0 mi ESE 5.8 mph - N/A   Mostly Cloudy
3:53 AM 66.0 °F 62.1 °F 87% 29.78 in 6.0 mi SSE 9.2 mph - N/A   Mostly Cloudy
4:01 AM 66.2 °F 62.6 °F 88% 29.80 in 8.0 mi SE 6.9 mph - N/A   Mostly Cloudy
4:46 AM 66.2 °F 62.6 °F 88% 29.82 in 9.0 mi South 11.5 mph 18.4 mph N/A   Overcast
4:53 AM 68.0 °F 63.0 °F 84% 29.81 in 9.0 mi South 12.7 mph 18.4 mph N/A   Mostly Cloudy
5:53 AM 68.0 °F 64.0 °F 87% 29.79 in 9.0 mi SSW 4.6 mph - 0.00 in   Partly Cloudy
6:44 AM 69.8 °F 64.4 °F 83% 29.80 in 10.0 mi SW 8.1 mph - N/A Thunderstorm Clear
6:53 AM 70.0 °F 64.0 °F 81% 29.79 in 10.0 mi SSW 5.8 mph - N/A   Clear
7:09 AM 69.8 °F 62.6 °F 78% 29.82 in 10.0 mi ESE 5.8 mph - N/A Thunderstorm Clear
7:21 AM 68.0 °F 64.4 °F 88% 29.82 in 8.0 mi Calm Calm - 0.01 in Rain , Thunderstorm Light Rain
7:42 AM 66.2 °F 64.4 °F 94% 29.83 in 10.0 mi East 3.5 mph - 0.01 in Rain Light Rain
7:53 AM 68.0 °F 64.0 °F 87% 29.82 in 10.0 mi Calm Calm - 0.01 in   Mostly Cloudy
8:43 AM 68.0 °F 66.2 °F 94% 29.83 in 2.0 mi SW 6.9 mph - 0.03 in Rain Rain
8:53 AM 68.0 °F 66.0 °F 93% 29.82 in 3.0 mi SSW 6.9 mph - 0.05 in Rain , Thunderstorm Rain
9:11 AM 68.0 °F 64.4 °F 88% 29.83 in 2.0 mi SSW 9.2 mph 17.3 mph 0.04 in Rain , Thunderstorm Rain
9:24 AM 68.0 °F 66.2 °F 94% 29.80 in 2.0 mi NNW 5.8 mph - 0.08 in Rain Rain
9:33 AM 68.0 °F 66.2 °F 94% 29.81 in 3.0 mi South 10.4 mph 16.1 mph 0.10 in Rain Rain
9:53 AM 68.0 °F 66.0 °F 93% 29.79 in 7.0 mi SSW 8.1 mph - 0.13 in Rain Light Rain
10:53 AM 71.1 °F 66.0 °F 84% 29.76 in 10.0 mi South 8.1 mph - 0.00 in   Partly Cloudy
11:53 AM 73.0 °F 64.9 °F 76% 29.79 in 10.0 mi South 5.8 mph - N/A   Scattered Clouds
12:53 PM 77.0 °F 64.9 °F 66% 29.78 in 10.0 mi SSE 4.6 mph - N/A   Overcast
1:53 PM 70.0 °F 64.0 °F 81% 29.77 in 10.0 mi ESE 9.2 mph - N/A   Clear
2:53 PM 69.1 °F 64.0 °F 84% 29.79 in 10.0 mi ESE 6.9 mph - N/A   Scattered Clouds
3:53 PM 69.1 °F 64.0 °F 84% 29.79 in 10.0 mi East 5.8 mph - N/A   Clear
4:53 PM 71.1 °F 64.0 °F 78% 29.77 in 10.0 mi Calm Calm - N/A   Partly Cloudy
5:53 PM 72.0 °F 64.9 °F 78% 29.76 in 10.0 mi Calm Calm - N/A   Clear
6:53 PM 73.0 °F 64.9 °F 76% 29.74 in 10.0 mi ESE 5.8 mph - N/A   Clear
7:53 PM 73.0 °F 64.0 °F 73% 29.77 in 10.0 mi WNW 4.6 mph - N/A   Clear
8:53 PM 66.0 °F 63.0 °F 90% 29.77 in 10.0 mi East 4.6 mph - N/A   Clear
9:53 PM 64.9 °F 62.1 °F 90% 29.78 in 10.0 mi East 3.5 mph - N/A   Clear
10:53 PM 64.9 °F 63.0 °F 93% 29.79 in 8.0 mi Calm Calm - N/A   Clear
11:53 PM 64.9 °F 63.0 °F 93% 29.79 in 9.0 mi Calm Calm - N/A   Clear